Viroqua, WI

10:44 AM CST on February 06, 2016 (GMT -0600)
Viroqua

Weather History for KY51 - December, 2012

Change the Weather History Date:

Wednesday, December 12, 2012

  Actual Average (KLSE) Record (KLSE)
Temperature  
Mean Temperature 30 °F 22 °F  
Max Temperature 37 °F 30 °F 57 °F (1968)
Min Temperature 23 °F 15 °F -13 °F (1958)
Degree Days  
Heating Degree Days 35 43  
Month to date heating degree days 484  
Since 1 July heating degree days 1984  
Cooling Degree Days 0 0  
Month to date cooling degree days 0  
Year to date cooling degree days 782  
Moisture  
Dew Point 25 °F    
Average Humidity 78    
Maximum Humidity 100    
Minimum Humidity 60    
Precipitation  
Precipitation 0.00 in 0.05 in 1.01 in (1991)
Month to date precipitation 0.63  
Year to date precipitation 32.33  
Snow  
Snow 0.00 in 0.50 in 8.50 in (1972)
Month to date snowfall 4.7  
Since 1 July snowfall 9.0  
Snow Depth -    
Sea Level Pressure  
Sea Level Pressure 30.04 in    
Wind  
Wind Speed 8 mph (South)    
Max Wind Speed 17 mph    
Max Gust Speed 23 mph    
Visibility 10 miles    
Events      
T = Trace of Precipitation, MM = Missing Value Source: NWS Daily Summary

Daily Weather History Graph

Daily Weather History Graph

Search for Another Location

Airport or City:

Trip Planner

Search our weather history database for the weather conditions in past years. The results will help you decide how hot, cold, wet, or windy it might be!

Date:

Astronomy

Dec. 12, 2012 Rise Set
Actual Time 7:28 AM CST 4:27 PM CST
Civil Twilight 6:55 AM CST 4:59 PM CST
Nautical Twilight 6:19 AM CST 5:35 PM CST
Astronomical Twilight 5:44 AM CST 6:10 PM CST
Moon 6:31 AM CST (12/12) 4:04 PM CST (12/12)
Length of Visible Light 10h 04m
Length of Day
8h 59m
Waning Crescent, 1% of the Moon is Illuminated
Dec 12
Waning Crescent
Dec 13
New
Dec 19
First Quarter
Dec 28
Full
Jan 4
Last Quarter

Hourly Weather History & Observations

Time (CST) Temp. Windchill Dew Point Humidity Pressure Visibility Wind Dir Wind Speed Gust Speed Precip Events Conditions
12:15 AM 26.6 °F 22.6 °F 24.8 °F 93% 30.03 in 10.0 mi SSW 3.5 mph - N/A   Overcast
12:35 AM 26.6 °F - 24.8 °F 93% 30.03 in 10.0 mi Calm Calm - N/A   Overcast
12:55 AM 26.6 °F 21.2 °F 26.6 °F 100% 30.04 in 10.0 mi South 4.6 mph - N/A   Overcast
1:15 AM 26.6 °F 21.2 °F 26.6 °F 100% 30.04 in 10.0 mi South 4.6 mph - N/A   Overcast
1:35 AM 26.6 °F 19.1 °F 24.8 °F 93% 30.04 in 10.0 mi South 6.9 mph - N/A   Overcast
1:55 AM 26.6 °F 19.1 °F 23.0 °F 86% 30.04 in 10.0 mi SSE 6.9 mph - N/A   Overcast
2:15 AM 24.8 °F 17.9 °F 23.0 °F 93% 30.04 in 10.0 mi SE 5.8 mph - N/A   Mostly Cloudy
2:35 AM 23.0 °F 17.0 °F 23.0 °F 100% 30.04 in 10.0 mi SE 4.6 mph - N/A   Mostly Cloudy
2:55 AM 24.8 °F 17.9 °F 24.8 °F 100% 30.04 in 7.0 mi SE 5.8 mph - N/A   Overcast
3:15 AM 23.0 °F 15.8 °F 23.0 °F 100% 30.04 in 7.0 mi ESE 5.8 mph - N/A   Overcast
3:55 AM 23.0 °F 14.7 °F 23.0 °F 100% 30.03 in 7.0 mi SE 6.9 mph - N/A   Scattered Clouds
4:15 AM 23.0 °F 13.1 °F 23.0 °F 100% 30.03 in 7.0 mi SE 9.2 mph - N/A   Clear
4:35 AM 23.0 °F 13.1 °F 23.0 °F 100% 30.03 in 7.0 mi SE 9.2 mph - N/A   Clear
4:55 AM 23.0 °F 15.8 °F 23.0 °F 100% 30.04 in 7.0 mi SSE 5.8 mph - N/A   Clear
5:35 AM 24.8 °F 17.9 °F 24.8 °F 100% 30.04 in 10.0 mi SSE 5.8 mph - N/A   Clear
5:55 AM 24.8 °F 17.9 °F 24.8 °F 100% 30.04 in 10.0 mi SSE 5.8 mph - N/A   Clear
6:15 AM 23.0 °F 14.7 °F 23.0 °F 100% 30.05 in 10.0 mi SSE 6.9 mph - N/A   Clear
6:35 AM 26.6 °F 17.5 °F 24.8 °F 93% 30.05 in 10.0 mi South 9.2 mph - N/A   Clear
6:55 AM 26.6 °F 18.2 °F 23.0 °F 86% 30.05 in 10.0 mi South 8.1 mph - N/A   Clear
7:15 AM 26.6 °F 19.1 °F 23.0 °F 86% 30.06 in 10.0 mi South 6.9 mph - N/A   Clear
7:35 AM 26.6 °F 16.8 °F 23.0 °F 86% 30.06 in 10.0 mi South 10.4 mph - N/A   Clear
7:55 AM 26.6 °F 17.5 °F 23.0 °F 86% 30.06 in 10.0 mi SSE 9.2 mph - N/A   Clear
8:15 AM 26.6 °F 16.8 °F 23.0 °F 86% 30.06 in 10.0 mi SSE 10.4 mph - N/A   Clear
8:35 AM 26.6 °F 17.5 °F 23.0 °F 86% 30.07 in 10.0 mi SSE 9.2 mph - N/A   Clear
8:55 AM 26.6 °F 15.7 °F 21.2 °F 80% 30.06 in 10.0 mi SSE 12.7 mph - N/A   Scattered Clouds
9:15 AM 26.6 °F 15.2 °F 21.2 °F 80% 30.07 in 10.0 mi South 13.8 mph - N/A   Scattered Clouds
9:35 AM 28.4 °F 18.5 °F 21.2 °F 74% 30.07 in 10.0 mi South 11.5 mph - N/A   Clear
9:55 AM 28.4 °F 20.4 °F 23.0 °F 80% 30.08 in 10.0 mi South 8.1 mph - N/A   Clear
10:15 AM 30.2 °F 20.2 °F 23.0 °F 75% 30.09 in 10.0 mi South 12.7 mph - N/A   Clear
10:35 AM 32.0 °F 23.0 °F 23.0 °F 69% 30.09 in 10.0 mi South 11.5 mph - N/A   Mostly Cloudy
10:55 AM 32.0 °F 22.1 °F 24.8 °F 75% 30.09 in 10.0 mi South 13.8 mph - N/A   Scattered Clouds
11:15 AM 33.8 °F 24.3 °F 26.6 °F 75% 30.07 in 10.0 mi South 13.8 mph - N/A   Clear
11:35 AM 32.0 °F 23.0 °F 26.6 °F 80% 30.06 in 10.0 mi South 11.5 mph - N/A   Clear
11:55 AM 33.8 °F 24.8 °F 26.6 °F 75% 30.05 in 10.0 mi South 12.7 mph 20.7 mph N/A   Scattered Clouds
12:15 PM 35.6 °F 27.1 °F 26.6 °F 70% 30.04 in 10.0 mi South 12.7 mph 18.4 mph N/A   Mostly Cloudy
12:35 PM 35.6 °F 27.1 °F 26.6 °F 70% 30.04 in 10.0 mi South 12.7 mph - N/A   Scattered Clouds
12:55 PM 35.6 °F 25.5 °F 26.6 °F 70% 30.03 in 10.0 mi South 17.3 mph 23.0 mph N/A   Clear
1:15 PM 37.4 °F 28.2 °F 26.6 °F 65% 30.03 in 10.0 mi South 16.1 mph 21.9 mph N/A   Clear
1:35 PM 37.4 °F 29.3 °F 26.6 °F 65% 30.02 in 10.0 mi South 12.7 mph 21.9 mph N/A   Clear
1:55 PM 37.4 °F 28.9 °F 24.8 °F 60% 30.02 in 10.0 mi South 13.8 mph 19.6 mph N/A   Clear
2:15 PM 37.4 °F 28.9 °F 26.6 °F 65% 30.01 in 10.0 mi South 13.8 mph - N/A   Clear
2:35 PM 37.4 °F 28.5 °F 26.6 °F 65% 30.01 in 10.0 mi South 15.0 mph - N/A   Clear
3:15 PM 37.4 °F 28.2 °F 26.6 °F 65% 30.02 in 10.0 mi South 16.1 mph - N/A   Clear
3:35 PM 37.4 °F 29.3 °F 26.6 °F 65% 30.02 in 10.0 mi South 12.7 mph 19.6 mph N/A   Clear
3:55 PM 37.4 °F 29.3 °F 26.6 °F 65% 30.02 in 10.0 mi South 12.7 mph 18.4 mph N/A   Clear
4:15 PM 37.4 °F 28.5 °F 26.6 °F 65% 30.00 in 10.0 mi South 15.0 mph - N/A   Clear
4:35 PM 37.4 °F 29.3 °F 26.6 °F 65% 30.00 in 10.0 mi South 12.7 mph 19.6 mph N/A   Clear
4:55 PM 37.4 °F 28.5 °F 26.6 °F 65% 30.00 in 10.0 mi South 15.0 mph 19.6 mph N/A   Clear
5:15 PM 37.4 °F 29.3 °F 26.6 °F 65% 30.00 in 10.0 mi South 12.7 mph - N/A   Clear
6:35 PM 37.4 °F 28.5 °F 26.6 °F 65% 30.01 in 10.0 mi South 15.0 mph 20.7 mph N/A   Clear
6:55 PM 37.4 °F 28.9 °F 26.6 °F 65% 30.02 in 10.0 mi South 13.8 mph 21.9 mph N/A   Clear
7:15 PM 37.4 °F 29.3 °F 26.6 °F 65% 30.02 in 10.0 mi South 12.7 mph - N/A   Clear
7:35 PM 35.6 °F 26.2 °F 26.6 °F 70% 30.03 in 10.0 mi South 15.0 mph 23.0 mph N/A   Clear
7:55 PM 35.6 °F 26.6 °F 26.6 °F 70% 30.03 in 10.0 mi South 13.8 mph 19.6 mph N/A   Clear
8:15 PM 35.6 °F 27.5 °F 26.6 °F 70% 30.04 in 10.0 mi South 11.5 mph 21.9 mph N/A   Clear
8:35 PM 35.6 °F 27.1 °F 26.6 °F 70% 30.04 in 10.0 mi South 12.7 mph - N/A   Clear
8:55 PM 35.6 °F 28.6 °F 26.6 °F 70% 30.05 in 10.0 mi South 9.2 mph - N/A   Clear
9:15 PM 35.6 °F 27.5 °F 26.6 °F 70% 30.05 in 10.0 mi South 11.5 mph 17.3 mph N/A   Clear
9:35 PM 35.6 °F 28.6 °F 24.8 °F 65% 30.05 in 10.0 mi South 9.2 mph - N/A   Clear
9:55 PM 35.6 °F 28.6 °F 24.8 °F 65% 30.05 in 10.0 mi South 9.2 mph - N/A   Clear
10:15 PM 33.8 °F 27.0 °F 23.0 °F 65% 30.06 in 10.0 mi South 8.1 mph - N/A   Clear
10:35 PM 35.6 °F 29.2 °F 23.0 °F 60% 30.07 in 10.0 mi South 8.1 mph - N/A   Clear
10:55 PM 35.6 °F 28.0 °F 23.0 °F 60% 30.07 in 10.0 mi SSW 10.4 mph 17.3 mph N/A   Clear
11:15 PM 33.8 °F 25.3 °F 23.0 °F 65% 30.08 in 10.0 mi SSW 11.5 mph 17.3 mph N/A   Clear
11:35 PM 33.8 °F 24.8 °F 23.0 °F 65% 30.08 in 10.0 mi SSW 12.7 mph - N/A   Clear
11:55 PM 33.8 °F 24.3 °F 23.0 °F 65% 30.09 in 10.0 mi SSW 13.8 mph 17.3 mph N/A   Clear